Jamestown, ND

10:40 PM CST on February 07, 2016 (GMT -0600)
Jamestown Municipal

Weather History for KJMS - September, 2012

Change the Weather History Date:

Thursday, September 13, 2012

  Actual Average Record
Temperature  
Mean Temperature 54 °F 59 °F  
Max Temperature 73 °F 72 °F 94 °F (1927)
Min Temperature 35 °F 46 °F 25 °F (1898)
Degree Days  
Heating Degree Days 11 7  
Month to date heating degree days 61 70  
Since 1 July heating degree days 91 136  
Cooling Degree Days 0 1  
Month to date cooling degree days 28 21  
Year to date cooling degree days 574 436  
Growing Degree Days 5 (Base 50)    
Moisture  
Dew Point 28 °F    
Average Humidity 46    
Maximum Humidity 76    
Minimum Humidity 15    
Precipitation  
Precipitation 0.00 in 0.08 in 1.16 in (1942)
Month to date precipitation 0.26 0.99  
Year to date precipitation 10.96 15.18  
Sea Level Pressure  
Sea Level Pressure 30.29 in    
Wind  
Wind Speed 7 mph (WNW)    
Max Wind Speed 17 mph    
Max Gust Speed 25 mph    
Visibility 10 miles    
Events      
T = Trace of Precipitation, MM = Missing Value Source: NWS Daily Summary

Daily Weather History Graph

Daily Weather History Graph

Search for Another Location

Airport or City:

Trip Planner

Search our weather history database for the weather conditions in past years. The results will help you decide how hot, cold, wet, or windy it might be!

Date:

Astronomy

Sep. 13, 2012 Rise Set
Actual Time 7:10 AM CDT 7:49 PM CDT
Civil Twilight 6:39 AM CDT 8:20 PM CDT
Nautical Twilight 6:03 AM CDT 8:56 PM CDT
Astronomical Twilight 5:25 AM CDT 9:34 PM CDT
Moon 4:24 AM CDT (9/13) 6:17 PM CDT (9/13)
Length of Visible Light 13h 40m
Length of Day
12h 38m
Waning Crescent, 7% of the Moon is Illuminated
Sep 13
Waning Crescent
Sep 15
New
Sep 22
First Quarter
Sep 29
Full
Oct 8
Last Quarter

Hourly Weather History & Observations

Time (CDT) Temp. Windchill Dew Point Humidity Pressure Visibility Wind Dir Wind Speed Gust Speed Precip Events Conditions
12:56 AM 44.1 °F - 28.0 °F 53% 30.27 in 10.0 mi Calm Calm - N/A   Clear
1:56 AM 44.1 °F 41.5 °F 28.0 °F 53% 30.28 in 10.0 mi WNW 4.6 mph - N/A   Clear
2:56 AM 39.0 °F - 28.9 °F 67% 30.29 in 10.0 mi Calm Calm - N/A   Clear
3:56 AM 42.1 °F 40.2 °F 30.0 °F 62% 30.30 in 10.0 mi West 3.5 mph - N/A   Clear
4:56 AM 39.0 °F - 30.0 °F 70% 30.31 in 10.0 mi Calm Calm - N/A   Clear
5:56 AM 39.9 °F 37.8 °F 30.9 °F 70% 30.32 in 10.0 mi West 3.5 mph - N/A   Clear
6:56 AM 39.9 °F 37.8 °F 32.0 °F 73% 30.32 in 10.0 mi West 3.5 mph - N/A   Clear
7:56 AM 43.0 °F 41.3 °F 33.1 °F 68% 30.33 in 10.0 mi West 3.5 mph - N/A   Clear
8:56 AM 48.0 °F - 33.1 °F 56% 30.34 in 10.0 mi West 3.5 mph - N/A   Clear
9:56 AM 59.0 °F - 32.0 °F 36% 30.34 in 10.0 mi West 9.2 mph - N/A   Clear
10:56 AM 66.0 °F - 26.1 °F 22% 30.33 in 10.0 mi West 12.7 mph 17.3 mph N/A   Clear
11:56 AM 68.0 °F - 21.9 °F 17% 30.32 in 10.0 mi West 13.8 mph - N/A   Clear
12:56 PM 69.1 °F - 21.0 °F 16% 30.30 in 10.0 mi West 9.2 mph 21.9 mph N/A   Clear
1:56 PM 71.1 °F - 21.9 °F 16% 30.28 in 10.0 mi West 13.8 mph 18.4 mph N/A   Clear
2:56 PM 70.0 °F - 23.0 °F 17% 30.27 in 10.0 mi Calm Calm - N/A   Clear
3:56 PM 70.0 °F - 23.0 °F 17% 30.25 in 10.0 mi NW 9.2 mph - N/A   Scattered Clouds
4:56 PM 69.1 °F - 23.0 °F 18% 30.25 in 10.0 mi NNW 3.5 mph - N/A   Overcast
5:56 PM 69.1 °F - 23.0 °F 18% 30.24 in 10.0 mi NE 3.5 mph - N/A   Mostly Cloudy
6:56 PM 66.0 °F - 28.9 °F 25% 30.24 in 10.0 mi ENE 5.8 mph - N/A   Overcast
7:56 PM 63.0 °F - 28.0 °F 27% 30.25 in 10.0 mi East 6.9 mph - N/A   Overcast
8:56 PM 61.0 °F - 28.0 °F 29% 30.27 in 10.0 mi East 17.3 mph 23.0 mph N/A   Overcast
9:56 PM 59.0 °F - 28.0 °F 31% 30.28 in 10.0 mi East 12.7 mph 21.9 mph N/A   Overcast
10:56 PM 55.0 °F - 30.9 °F 40% 30.29 in 10.0 mi East 9.2 mph - N/A   Partly Cloudy
11:56 PM 51.1 °F - 32.0 °F 48% 30.30 in 10.0 mi ESE 6.9 mph - N/A   Clear